CZ-6A DEB, 61404

Orbit data source: Space-Track

CZ-6A DEB, 61404 is space debris in LEO originally from a launch on Tue, 06 Aug 2024 UTC launched from the Taiyaun Space Center, China (TSC). Debris objects in space refer to the collection of defunct objects orbiting the Earth. Examples of debris include non-operational satellites, rocket bodies, and fragments generated from explosions, collisions, or faulty payload assembly.

Loading next visibility...
Identifier
61404, 2024-140XV
Orbit
LEO
Country
Flag of CNCN / PRC
Related business
Manufacturer
SAST
Mission
Spacecraft
Bus & Motor
Unknown
Mass
Unknown
Launch date (UTC)
2024-08-06 (2 years ago)
Launch vehicle
Unknown
Launch site
Taiyaun Space Center, China (TSC)
Object type
Payload
Rocket body
Debris
Shape & HBR
Unknown shape, 0.1 m
Radar Cross Section
Medium (>0.1 m² and <1 m²)

Expand to show TLE details & history
Last TLE update: 14 hours ago

TLE from 14 hours ago
0 CZ-6A DEB
1 61404U 24140XV  26171.27998664  .00001472  00000-0  31593-3 0  9992
2 61404  89.0937 277.8109 0103122 255.8299 103.1436 14.54863645 94317
Epoch: 2026-06-20T06:43Z
TLE epoch observation values (Epoch: 2026-06-20T06:43:10.845Z)
Latitude
-0.00006°
Longitude
-91.48117°
Altitude
730.247 km
Speed
7.481 km/s
True Right ascension
18h 31m 14s
True Declination
0° 00' 00"
Sunlit
Object was in full shadow at epoch
Visualization orbit readout
Latitude
Unknown
Longitude
Unknown
Altitude
Unknown
Speed
Unknown
Apparent Right ascension
Unknown
Apparent Declination
Unknown
Sunlit
N/A
Visualization observer readout
Local Sidereal Time
07:14:22
Azimuth
Unknown
Elevation
Unknown
Doppler factor
Unknown
Orbital elements
Apogee altitude
779.768 km
Perigee altitude
633.648 km
Semi-major axis
7,084.845 km
Eccentricity
0.01031
Inclination
89.0937°
RAAN
277.8109°
Arg. of periapsis
255.8299°
True anomaly
104.29089°
Mean anomaly
103.1436°
Eccentric anomaly
103.71759°
Mean motion
3.63955 °/min
Orbital period
98.91 mins
BSTAR
0.00031593
Loading maneuver chart data...
Computing Atmospheric mass density...
Loading historical data...
Loading historical data...
Loading historical data...
Loading historical data...
Loading historical data...
Loading historical data...
Loading historical data...

Documentation

Showing up to 5 results
|